Location: Ferintosh
(52.7647°N, 112.9692°W)
Time: 18:06:22
(UTC+00:00)

A-11 Canister half - Pass Details

Date: 25 May 2024
Orbit: 1515 x 1685 km, 47.2° (Epoch: 12 June)

Event Time Altitude Azimuth Distance (km) Brightness Sun altitude
Rises 11:56:50 0° 264° (W) 4,738 11.0 3.8°
Reaches altitude 10° 11:59:57 10° 261° (W) 3,734 10.5 4.2°
Maximum altitude 12:09:09 63° 184° (S) 1,673 9.2 5.4°
Drops below altitude 10° 12:18:12 10° 106° (ESE) 3,674 11.8 6.6°
Sets 12:21:15 0° 103° (ESE) 4,657 12.4 7.0°
